Montgomery, NY

5:47 PM EST on January 21, 2018 (GMT -0500)
Orange County

Weather History for KMGJ - February, 2014

Change the Weather History Date:

Wednesday, February 12, 2014

  Actual Average (KSWF) Record (KSWF)
Temperature  
Mean Temperature 5 °F -  
Max Temperature 21 °F 35 °F 35 °F (2015)
Min Temperature -11 °F 18 °F -4 °F (2014)
Degree Days  
Heating Degree Days 60    
Moisture  
Dew Point -4 °F    
Average Humidity 63    
Maximum Humidity 83    
Minimum Humidity 38    
Precipitation  
Precipitation 0.00 in - - ()
Sea Level Pressure  
Sea Level Pressure 30.47 in    
Wind  
Wind Speed 1 mph (North)    
Max Wind Speed 7 mph    
Max Gust Speed -    
Visibility 10 miles    
Events      
Averages and records for this station are not official NWS values.
T = Trace of Precipitation, MM = Missing Value Source: NWS Daily Summary

Daily Weather History Graph

Daily Weather History Graph

Search for Another Location

Airport or City:

Trip Planner

Search our weather history database for the weather conditions in past years. The results will help you decide how hot, cold, wet, or windy it might be!

Date:

Astronomy

Feb. 12, 2014 Rise Set
Actual Time 6:56 AM EST 5:26 PM EST
Civil Twilight 6:27 AM EST 5:55 PM EST
Nautical Twilight 5:54 AM EST 6:28 PM EST
Astronomical Twilight 5:22 AM EST 7:00 PM EST
Moon 3:37 PM EST (2/12) 5:11 AM EST (2/12)
Length of Visible Light 11h 28m
Length of Day
10h 30m
Waxing Gibbous, 95% of the Moon is Illuminated
Feb 12
Waxing Gibbous
Feb 14
Full
Feb 22
Last Quarter
Mar 1
New
Mar 8
First Quarter

Hourly Weather History & Observations

Time (EST) Temp. Windchill Dew Point Humidity Pressure Visibility Wind Dir Wind Speed Gust Speed Precip Events Conditions
12:54 AM -2.0 °F - -8.0 °F 76% 30.49 in 10.0 mi Calm Calm - N/A   Clear
1:54 AM -2.9 °F - -9.0 °F 75% 30.49 in 10.0 mi Calm Calm - N/A   Clear
2:54 AM -6.0 °F - -11.0 °F 79% 30.49 in 10.0 mi Calm Calm - N/A   Clear
3:54 AM -6.0 °F - -9.9 °F 83% 30.51 in 10.0 mi Calm Calm - N/A   Clear
4:54 AM -9.9 °F - -16.1 °F 74% 30.52 in 10.0 mi Calm Calm - N/A   Clear
5:54 AM -9.9 °F - -15.0 °F 78% 30.53 in 10.0 mi Calm Calm - N/A   Clear
6:54 AM -11.9 °F -21.5 °F -18.0 °F 74% 30.53 in 10.0 mi SSW 3.5 mph - N/A   Clear
7:54 AM -9.0 °F - -14.1 °F 79% 30.57 in 10.0 mi Calm Calm - N/A   Clear
8:54 AM 1.0 °F - -5.1 °F 75% 30.58 in 10.0 mi Calm Calm - N/A   Clear
9:54 AM 10.0 °F -0.9 °F -2.9 °F 56% 30.57 in 10.0 mi NE 6.9 mph - N/A   Clear
10:54 AM 14.0 °F 8.2 °F -0.9 °F 52% 30.55 in 10.0 mi North 3.5 mph - N/A   Clear
11:54 AM 17.1 °F - -0.0 °F 47% 30.56 in 10.0 mi Calm Calm - N/A   Clear
12:54 PM 19.0 °F - -0.9 °F 42% 30.51 in 10.0 mi Calm Calm - N/A   Clear
1:54 PM 19.9 °F 12.1 °F -0.0 °F 42% 30.47 in 10.0 mi NNE 5.8 mph - N/A   Clear
2:54 PM 19.9 °F 14.9 °F -0.9 °F 40% 30.46 in 10.0 mi WNW 3.5 mph - N/A   Clear
3:54 PM 21.0 °F - -0.9 °F 38% 30.45 in 10.0 mi Calm Calm - N/A   Clear
4:54 PM 19.9 °F 14.9 °F -0.9 °F 40% 30.45 in 10.0 mi North 3.5 mph - N/A   Clear
5:54 PM 15.1 °F - 1.0 °F 54% 30.45 in 10.0 mi Calm Calm - N/A   Clear
6:54 PM 12.0 °F 5.9 °F 1.0 °F 61% 30.43 in 10.0 mi North 3.5 mph - N/A   Clear
7:54 PM 10.0 °F - -0.9 °F 61% 30.42 in 10.0 mi Calm Calm - N/A   Clear
8:54 PM 9.0 °F 2.4 °F 1.0 °F 70% 30.41 in 10.0 mi NW 3.5 mph - N/A   Clear
9:50 PM 8.6 °F - 1.4 °F 73% 30.36 in 10.0 mi Calm Calm - N/A   Mostly Cloudy
9:54 PM 9.0 °F - 1.9 °F 73% 30.38 in 10.0 mi Calm Calm - N/A   Mostly Cloudy
10:54 PM 12.0 °F 5.9 °F 1.9 °F 64% 30.35 in 10.0 mi NNE 3.5 mph - N/A   Mostly Cloudy
11:54 PM 15.1 °F - 5.0 °F 64% 30.33 in 10.0 mi Calm Calm - N/A   Overcast